Terminal Aerodrome Forecast
Issued by NWS

Home | Current Version | Previous Version | Text Only | Print | Product List | Glossary On
Versions: 1 2 3 4 5 6 7 8 9 10 11 12 13 14 15 16 17 18 19 20 21 22 23 24 25 26 27 28 29 30 31 32
000
FTAK31 PANC 161137
TAFAAQ
TAF
PAAQ 161137Z 1612/1712 12010KT P6SM -SHRA BKN040 OVC080
     FM162000 14010G18KT P6SM VCSH BKN070
     FM170900 07006KT P6SM -SHRA OVC050=

USA.gov is the U.S. government's official web portal to all federal, state and local government web resources and services.